STARLINK-35426

Last updated on Fri Dec 12 2025 00:02:05 GMT+0000 (Coordinated Universal Time)

1 66441U 25259V 25345.58335648 -.00181374 00000+0 -44297-2 0 9998 2 66441 43.0005 54.2013 0001178 247.0687 351.5948 15.40760609 6099
UTC large
Height (km)
Speed (km/s)
/
Latitude / Longitude
Inclination (degrees)
Orbital Period (minutes)
Azimuth
Elevation
Range (km)
Doppler Factor

Next 0 passes for location: London (51.5072 / 0.1276)

Sorry there are no passes over London.